FW7026 Weather Reports


time (UTC)temp
C
wind
direction
speed
KPH
gust
KPH
rain 1hr
cm
rain 24hr
cm
rain mn
cm
humidity
%
barometer
mb
20260505204426 22 155 0.0 0.0 0.00 0.00 0.00 40 996.7
20260505203923 22 282 0.0 0.0 0.00 0.00 0.00 40 997.0
20260505203419 22 162 0.0 0.0 0.00 0.00 0.00 40 996.7
20260505202916 22 199 0.0 0.0 0.00 0.00 0.00 39 996.7
20260505202412 23 145 3.2 12.9 0.00 0.00 0.00 39 996.7
20260505201909 23 171 4.8 16.1 0.00 0.00 0.00 38 996.7
20260505201406 23 198 0.0 3.2 0.00 0.00 0.00 38 996.7
20260505200904 23 194 0.0 16.1 0.00 0.00 0.00 38 996.7
20260505200401 23 206 14.5 20.9 0.00 0.00 0.00 38 997.0
20260505195856 23 198 0.0 16.1 0.00 0.00 0.00 38 997.0
20260505195354 23 158 0.0 12.9 0.00 0.00 0.00 38 997.0
20260505194851 22 219 3.2 12.9 0.00 0.00 0.00 38 997.0
20260505194349 22 196 0.0 3.2 0.00 0.00 0.00 38 997.7
20260505193848 22 250 9.7 12.9 0.00 0.00 0.00 38 997.7
20260505193347 23 37 0.0 16.1 0.00 0.00 0.00 38 997.7
20260505192844 23 109 12.9 20.9 0.00 0.00 0.00 37 997.7
20260505192342 23 195 0.0 16.1 0.00 0.00 0.00 38 997.7
20260505191839 23 51 0.0 8.0 0.00 0.00 0.00 39 998.1
20260505191338 23 202 0.0 20.9 0.00 0.00 0.00 37 997.7
20260505190834 23 279 4.8 24.1 0.00 0.00 0.00 36 998.1
20260505190330 22 135 0.0 12.9 0.00 0.00 0.00 40 998.1
20260505185826 22 160 0.0 16.1 0.00 0.00 0.00 39 998.1
20260505185322 22 229 0.0 12.9 0.00 0.00 0.00 40 998.4
20260505184818 22 282 0.0 12.9 0.00 0.00 0.00 39 998.4
20260505184316 22 167 0.0 3.2 0.00 0.00 0.00 39 998.7
20260505183813 22 150 0.0 0.0 0.00 0.00 0.00 40 998.7
20260505183309 22 213 0.0 24.1 0.00 0.00 0.00 39 999.1
20260505182806 22 235 0.0 3.2 0.00 0.00 0.00 38 999.1
20260505182305 21 271 0.0 3.2 0.00 0.00 0.00 40 999.1
20260505181800 21 148 0.0 0.0 0.00 0.00 0.00 40 999.1
20260505181257 21 213 9.7 12.9 0.00 0.00 0.00 39 999.4
20260505180753 21 213 9.7 12.9 0.00 0.00 0.00 39 999.4
20260505180250 20 185 0.0 0.0 0.00 0.00 0.00 42 999.8
20260505175746 20 232 0.0 12.9 0.00 0.00 0.00 41 999.8
20260505175243 20 150 4.8 8.0 0.00 0.00 0.00 43 999.8
20260505174739 19 215 0.0 0.0 0.00 0.00 0.00 43 1000.1
20260505174237 19 249 0.0 0.0 0.00 0.00 0.00 44 1000.1
20260505173732 19 233 0.0 0.0 0.00 0.00 0.00 44 1000.1
20260505173229 20 205 0.0 8.0 0.00 0.00 0.00 43 1000.1
20260505172726 20 247 0.0 3.2 0.00 0.00 0.00 42 1000.1
20260505172223 20 255 0.0 0.0 0.00 0.00 0.00 42 1000.1
20260505171723 20 219 4.8 16.1 0.00 0.00 0.00 41 1000.1
20260505171221 20 255 0.0 16.1 0.00 0.00 0.00 41 999.8
20260505170717 20 225 0.0 24.1 0.00 0.00 0.00 41 999.8
20260505170214 20 247 0.0 24.1 0.00 0.00 0.00 40 1000.1
20260505165709 20 200 0.0 16.1 0.00 0.00 0.00 40 999.8
20260505165206 20 324 1.6 3.2 0.00 0.00 0.00 40 999.8
20260505164701 21 262 0.0 24.1 0.00 0.00 0.00 39 999.8
20260505164159 21 298 0.0 24.1 0.00 0.00 0.00 39 999.8
20260505163657 21 238 0.0 0.0 0.00 0.00 0.00 38 999.8
20260505163155 22 55 0.0 20.9 0.00 0.00 0.00 38 999.8
20260505162652 22 37 0.0 12.9 0.00 0.00 0.00 37 999.8
20260505162149 22 165 0.0 24.1 0.00 0.00 0.00 36 999.8
20260505161646 22 311 0.0 16.1 0.00 0.00 0.00 37 1000.1
20260505161143 23 299 0.0 12.9 0.00 0.00 0.00 36 1000.1
20260505160641 23 117 0.0 0.0 0.00 0.00 0.00 36 1000.1
20260505160138 23 249 0.0 0.0 0.00 0.00 0.00 37 1000.1
20260505153118 21 226 0.0 20.9 0.00 0.00 0.00 39 1000.4
20260505152614 21 253 0.0 3.2 0.00 0.00 0.00 40 1000.9
20260505152110 21 149 0.0 0.0 0.00 0.00 0.00 41 1000.9
20260505151605 20 132 0.0 3.2 0.00 0.00 0.00 41 1001.2
20260505151103 20 167 0.0 0.0 0.00 0.00 0.00 41 1001.2
20260505150559 21 209 0.0 0.0 0.00 0.00 0.00 40 1000.9
20260505140525 18 225 0.0 3.2 0.00 0.00 0.00 47 1001.6
20260505124938 13 180 0.0 0.0 0.00 0.00 0.00 63 1001.9
20260505124435 13 196 0.0 0.0 0.00 0.00 0.00 64 1001.9
20260505123931 13 214 0.0 0.0 0.00 0.00 0.00 64 1002.2
20260505123428 12 219 0.0 0.0 0.00 0.00 0.00 65 1001.9
20260505122923 11 228 0.0 0.0 0.00 0.00 0.00 67 1001.9
20260505122421 11 175 0.0 0.0 0.00 0.00 0.00 69 1001.9
20260505121917 11 200 0.0 0.0 0.00 0.00 0.00 70 1001.9
20260505121415 11 176 0.0 0.0 0.00 0.00 0.00 70 1001.9
20260505120910 10 183 0.0 0.0 0.00 0.00 0.00 71 1002.2
20260505120407 10 195 0.0 0.0 0.00 0.00 0.00 71 1002.2
20260505115906 10 169 0.0 0.0 0.00 0.00 0.00 72 1002.2
20260505115403 10 166 0.0 0.0 0.00 0.00 0.00 73 1002.2
20260505114901 9 216 0.0 0.0 0.00 0.00 0.00 75 1002.6
20260505114357 8 157 0.0 0.0 0.00 0.00 0.00 75 1002.6
20260505113853 8 167 0.0 0.0 0.00 0.00 0.00 76 1002.6
20260505113350 8 215 0.0 0.0 0.00 0.00 0.00 76 1002.6
20260505112846 7 194 0.0 0.0 0.00 0.00 0.00 77 1002.6
20260505112344 7 186 0.0 0.0 0.00 0.00 0.00 77 1002.9
20260505111839 7 156 0.0 0.0 0.00 0.00 0.00 77 1002.6
20260505111334 7 120 0.0 0.0 0.00 0.00 0.00 78 1002.9
20260505110831 7 178 0.0 0.0 0.00 0.00 0.00 78 1002.9
20260505110328 6 160 0.0 0.0 0.00 0.00 0.00 80 1002.6
20260505101803 5 198 0.0 0.0 0.00 0.00 0.00 91 1002.6
20260505101258 5 184 0.0 0.0 0.00 0.00 0.00 91 1002.6
20260505100755 5 176 0.0 0.0 0.00 0.00 0.00 91 1002.9
20260505100251 5 172 0.0 0.0 0.00 0.00 0.00 91 1002.6
20260505095747 5 196 0.0 0.0 0.00 0.00 0.00 91 1002.6
20260505095245 4 141 0.0 0.0 0.00 0.00 0.00 91 1002.9
20260505094740 4 180 0.0 0.0 0.00 0.00 0.00 91 1002.6
20260505094237 4 169 0.0 0.0 0.00 0.00 0.00 91 1002.6
20260505093733 3 189 0.0 0.0 0.00 0.00 0.00 91 1002.6
20260505093231 3 195 0.0 0.0 0.00 0.00 0.00 90 1002.9
20260505092728 3 192 0.0 0.0 0.00 0.00 0.00 90 1002.9
20260505092227 3 195 0.0 0.0 0.00 0.00 0.00 90 1002.9
20260505091723 3 212 0.0 0.0 0.00 0.00 0.00 89 1002.9
20260505091221 3 230 0.0 0.0 0.00 0.00 0.00 89 1002.9
20260505090718 3 192 0.0 0.0 0.00 0.00 0.00 88 1002.9
20260505090217 3 186 0.0 0.0 0.00 0.00 0.00 88 1002.9
20260505085714 3 187 0.0 0.0 0.00 0.00 0.00 87 1002.9
20260505085212 3 194 0.0 0.0 0.00 0.00 0.00 87 1002.9
20260505084709 3 184 0.0 0.0 0.00 0.00 0.00 85 1002.6
20260505084208 3 191 0.0 0.0 0.00 0.00 0.00 85 1002.9
20260505083704 3 203 0.0 0.0 0.00 0.00 0.00 84 1002.9
20260505083201 3 200 0.0 0.0 0.00 0.00 0.00 83 1002.9
20260505082657 3 199 0.0 0.0 0.00 0.00 0.00 82 1003.2
20260505082154 4 201 0.0 0.0 0.00 0.00 0.00 81 1003.2
20260505081650 4 201 0.0 0.0 0.00 0.00 0.00 81 1003.2
20260505081148 4 195 0.0 0.0 0.00 0.00 0.00 80 1003.2
20260505080645 4 203 0.0 0.0 0.00 0.00 0.00 79 1002.9
20260505080140 5 166 0.0 0.0 0.00 0.00 0.00 79 1003.2
20260505075637 5 204 0.0 0.0 0.00 0.00 0.00 79 1003.2
20260505075133 5 190 0.0 0.0 0.00 0.00 0.00 78 1003.2
20260505074630 5 190 0.0 0.0 0.00 0.00 0.00 78 1003.2
20260505074127 5 198 0.0 0.0 0.00 0.00 0.00 78 1003.2
20260505073625 5 199 0.0 0.0 0.00 0.00 0.00 77 1003.6
20260505073123 5 184 0.0 0.0 0.00 0.00 0.00 77 1003.6
20260505072618 5 197 0.0 0.0 0.00 0.00 0.00 77 1003.2
20260505072115 5 197 0.0 0.0 0.00 0.00 0.00 77 1003.6
20260505071611 5 200 0.0 0.0 0.00 0.00 0.00 78 1003.2
20260505071109 5 168 0.0 0.0 0.00 0.00 0.00 78 1003.2
20260505070606 5 174 0.0 0.0 0.00 0.00 0.00 78 1003.6
20260505065558 5 197 0.0 0.0 0.00 0.00 0.00 77 1003.2
20260505065055 5 195 0.0 0.0 0.00 0.00 0.00 76 1003.2
20260505064551 5 194 0.0 0.0 0.00 0.00 0.00 76 1003.2
20260505064050 5 187 0.0 0.0 0.00 0.00 0.00 76 1003.6
20260505063547 5 205 0.0 0.0 0.00 0.00 0.00 76 1003.6
20260505063043 5 201 0.0 0.0 0.00 0.00 0.00 75 1003.2
20260505062540 5 232 0.0 0.0 0.00 0.00 0.00 75 1003.6
20260505062037 5 199 0.0 0.0 0.00 0.00 0.00 75 1003.6
20260505061534 6 277 0.0 0.0 0.00 0.00 0.00 75 1003.6
20260505061032 6 182 0.0 0.0 0.00 0.00 0.00 75 1003.6
20260505060529 6 246 0.0 0.0 0.00 0.00 0.00 75 1003.6
20260505060026 6 245 0.0 0.0 0.00 0.00 0.00 75 1003.9
20260505055521 6 191 0.0 0.0 0.00 0.00 0.00 75 1003.9
20260505055018 5 223 0.0 0.0 0.00 0.00 0.00 75 1003.9
20260505054516 5 256 0.0 0.0 0.00 0.00 0.00 75 1003.9
20260505054014 5 193 0.0 0.0 0.00 0.00 0.00 75 1003.6
20260505053510 5 175 0.0 0.0 0.00 0.00 0.00 74 1003.6
20260505053007 5 162 0.0 0.0 0.00 0.00 0.00 74 1003.2
20260505052504 5 212 0.0 0.0 0.00 0.00 0.00 74 1003.6
20260505052001 5 219 0.0 0.0 0.00 0.00 0.00 73 1003.2
20260505051458 5 187 0.0 0.0 0.00 0.00 0.00 73 1003.2
20260505050956 5 195 0.0 0.0 0.00 0.00 0.00 73 1003.2
20260505050454 5 210 0.0 0.0 0.00 0.00 0.00 73 1003.2
20260505041422 5 218 0.0 0.0 0.00 0.00 0.00 72 1003.9
20260505040919 6 236 0.0 0.0 0.00 0.00 0.00 72 1003.9
20260505040416 5 248 0.0 0.0 0.00 0.00 0.00 72 1003.9
20260505035913 5 169 0.0 0.0 0.00 0.00 0.00 72 1003.6
20260505035409 5 206 0.0 0.0 0.00 0.00 0.00 72 1003.6
20260505034907 5 226 0.0 0.0 0.00 0.00 0.00 72 1003.6
20260505034403 5 238 0.0 0.0 0.00 0.00 0.00 72 1003.2
20260505033900 5 249 0.0 0.0 0.00 0.00 0.00 72 1003.6
20260505033357 5 206 0.0 0.0 0.00 0.00 0.00 72 1003.6
20260505032855 5 227 0.0 0.0 0.00 0.00 0.00 72 1003.6
20260505032351 5 223 0.0 0.0 0.00 0.00 0.00 72 1003.6
20260505031848 5 197 0.0 0.0 0.00 0.00 0.00 73 1003.6
20260505031345 5 217 0.0 0.0 0.00 0.00 0.00 72 1003.6
20260505030842 5 194 0.0 0.0 0.00 0.00 0.00 73 1003.6
20260505030338 5 241 0.0 0.0 0.00 0.00 0.00 73 1003.6
20260505025833 5 188 0.0 0.0 0.00 0.00 0.00 72 1003.6
20260505025331 5 194 0.0 0.0 0.00 0.00 0.00 72 1003.6
20260505024830 5 199 0.0 0.0 0.00 0.00 0.00 72 1003.2
20260505024327 5 161 0.0 0.0 0.00 0.00 0.00 72 1003.6
20260505023824 5 241 0.0 0.0 0.00 0.00 0.00 72 1003.2
20260505023321 5 224 0.0 0.0 0.00 0.00 0.00 72 1003.6
20260505022818 5 206 0.0 0.0 0.00 0.00 0.00 72 1003.2
20260505022315 5 220 0.0 0.0 0.00 0.00 0.00 72 1003.6
20260505021813 5 188 0.0 0.0 0.00 0.00 0.00 71 1003.6
20260505021309 5 253 0.0 0.0 0.00 0.00 0.00 71 1003.6
20260505020805 5 223 0.0 0.0 0.00 0.00 0.00 71 1003.2
20260505020301 5 276 0.0 0.0 0.00 0.00 0.00 71 1003.6
20260505015758 5 188 0.0 0.0 0.00 0.00 0.00 70 1003.6
20260505015255 5 251 0.0 0.0 0.00 0.00 0.00 70 1003.2
20260505014752 5 208 0.0 0.0 0.00 0.00 0.00 70 1003.2
20260505014249 5 240 0.0 0.0 0.00 0.00 0.00 70 1003.2
20260505013745 5 283 0.0 0.0 0.00 0.00 0.00 70 1003.2
20260505013243 5 185 0.0 0.0 0.00 0.00 0.00 70 1003.2
20260505012741 5 242 0.0 0.0 0.00 0.00 0.00 69 1003.2
20260505012238 5 220 0.0 0.0 0.00 0.00 0.00 69 1003.2
20260505011733 5 207 0.0 0.0 0.00 0.00 0.00 69 1003.2
20260505011231 5 202 0.0 0.0 0.00 0.00 0.00 69 1003.2
20260505010726 5 315 0.0 0.0 0.00 0.00 0.00 68 1003.2
20260505010223 5 286 0.0 0.0 0.00 0.00 0.00 68 1003.2
20260505005719 5 252 0.0 0.0 0.00 0.00 0.00 68 1002.9
20260505005216 6 248 0.0 0.0 0.00 0.00 0.00 68 1002.9
20260505004714 6 251 0.0 0.0 0.00 0.00 0.00 67 1002.9
20260505004210 6 209 0.0 0.0 0.00 0.00 0.00 67 1002.9
20260505003707 6 251 0.0 0.0 0.00 0.00 0.00 67 1002.9
20260505003205 6 215 0.0 0.0 0.00 0.00 0.00 67 1002.9
20260505002701 6 214 0.0 0.0 0.00 0.00 0.00 66 1002.6
20260505002159 6 202 0.0 0.0 0.00 0.00 0.00 65 1002.6
20260505001655 6 186 0.0 0.0 0.00 0.00 0.00 65 1002.6
20260505001153 6 242 0.0 0.0 0.00 0.00 0.00 64 1002.2
20260505000650 6 255 0.0 0.0 0.00 0.00 0.00 63 1002.2
20260505000148 7 188 0.0 0.0 0.00 0.00 0.00 63 1002.2
20260504235644 7 246 0.0 0.0 0.00 0.00 0.00 62 1001.9
20260504235141 7 274 0.0 0.0 0.00 0.00 0.00 62 1001.9
20260504234638 7 255 0.0 0.0 0.00 0.00 0.00 61 1001.9
20260504234136 7 251 0.0 0.0 0.00 0.00 0.00 61 1001.9
20260504233631 7 163 0.0 0.0 0.00 0.00 0.00 61 1001.6
20260504233127 7 233 0.0 0.0 0.00 0.00 0.00 60 1001.6
20260504232625 7 254 0.0 0.0 0.00 0.00 0.00 61 1001.6
20260504232122 7 224 0.0 0.0 0.00 0.00 0.00 60 1001.6
20260504231618 8 287 0.0 0.0 0.00 0.00 0.00 59 1001.6
20260504231115 8 272 0.0 0.0 0.00 0.00 0.00 59 1001.2
20260504230611 8 194 0.0 0.0 0.00 0.00 0.00 59 1001.2
20260504230110 8 148 0.0 0.0 0.00 0.00 0.00 59 1001.2
20260504225607 8 194 0.0 0.0 0.00 0.00 0.00 59 1001.2
20260504225104 8 252 0.0 0.0 0.00 0.00 0.00 58 1001.2
20260504224600 8 234 0.0 0.0 0.00 0.00 0.00 58 1001.2
20260504224057 8 244 0.0 0.0 0.00 0.00 0.00 58 1001.2
20260504223554 8 238 0.0 0.0 0.00 0.00 0.00 58 1001.2
20260504223050 8 174 0.0 0.0 0.00 0.00 0.00 58 1000.9
20260504222547 8 300 0.0 0.0 0.00 0.00 0.00 58 1000.9
20260504222044 8 240 0.0 0.0 0.00 0.00 0.00 59 1000.9
20260504221542 8 238 0.0 0.0 0.00 0.00 0.00 59 1000.9
20260504221038 8 231 0.0 0.0 0.00 0.00 0.00 58 1000.9
20260504220535 8 214 0.0 0.0 0.00 0.00 0.00 58 1000.9
20260504220032 8 144 0.0 0.0 0.00 0.00 0.00 59 1000.9
20260504215528 8 239 0.0 0.0 0.00 0.00 0.00 58 1000.9
20260504215026 9 265 0.0 0.0 0.00 0.00 0.00 57 1000.9
20260504214522 9 195 0.0 0.0 0.00 0.00 0.00 58 1000.9
20260504214018 8 245 0.0 0.0 0.00 0.00 0.00 59 1000.9
20260504213514 8 267 0.0 0.0 0.00 0.00 0.00 58 1000.9
20260504213012 9 304 0.0 0.0 0.00 0.00 0.00 56 1000.9
20260504212508 10 308 0.0 3.2 0.00 0.00 0.00 55 1000.9
20260504212005 10 220 0.0 0.0 0.00 0.00 0.00 55 1000.4
20260504211502 10 239 0.0 0.0 0.00 0.00 0.00 55 1000.4
20260504210959 10 260 0.0 8.0 0.00 0.00 0.00 54 1000.4
20260504210456 10 146 0.0 0.0 0.00 0.00 0.00 55 1000.4
20260504205953 10 263 0.0 0.0 0.00 0.00 0.00 55 1000.4
20260504205450 10 250 0.0 0.0 0.00 0.00 0.00 56 1000.4
20260504204948 10 271 0.0 0.0 0.00 0.00 0.00 54 1000.4